Minneapolis, MN

8:46 PM CDT on September 29, 2016 (GMT -0500)
Minneapolis-Saint Paul International

Weather History for KMSP - August, 2013

Change the Weather History Date:

Friday, August 30, 2013

  Actual Average Record
Temperature  
Mean Temperature 79 °F 68 °F  
Max Temperature 85 °F 78 °F 96 °F (1941)
Min Temperature 72 °F 59 °F 45 °F (1935)
Degree Days  
Heating Degree Days 0 1  
Month to date heating degree days 0 9  
Since 1 June heating degree days 50 58  
Since 1 July heating degree days 8 14  
Cooling Degree Days 14 5  
Month to date cooling degree days 297 200  
Year to date cooling degree days 836 676  
Since 1 June cooling degree days 783 634  
Growing Degree Days 28 (Base 50)    
Moisture  
Dew Point 66 °F    
Average Humidity 69    
Maximum Humidity 87    
Minimum Humidity 51    
Precipitation  
Precipitation 0.00 in 0.12 in 7.28 in (1977)
Month to date precipitation 2.01 4.18  
Year to date precipitation 26.38 22.05  
Snow  
Snow 0.00 in 0.00 in 0.00 in ()
Month to date snowfall T 0.0  
Since 1 June snowfall T 0.0  
Since 1 July snowfall T 0.0  
Snow Depth 0.00 in    
Sea Level Pressure  
Sea Level Pressure 29.87 in    
Wind  
Wind Speed 10 mph (North)    
Max Wind Speed 18 mph    
Max Gust Speed 30 mph    
Visibility 10 miles    
Events      
T = Trace of Precipitation, MM = Missing Value Source: NWS Daily Summary

Daily Weather History Graph

Daily Weather History Graph

Search for Another Location

Airport or City:

Trip Planner

Search our weather history database for the weather conditions in past years. The results will help you decide how hot, cold, wet, or windy it might be!

Date:

Astronomy

Aug. 30, 2013 Rise Set
Actual Time 6:33 AM CDT 7:52 PM CDT
Civil Twilight 6:02 AM CDT 8:23 PM CDT
Nautical Twilight 5:25 AM CDT 8:59 PM CDT
Astronomical Twilight 4:46 AM CDT 9:38 PM CDT
Moon 1:04 AM CDT 4:16 PM CDT
Length of Visible Light 14h 20m
Length of Day
13h 19m
Waning Crescent, 29% of the Moon is Illuminated
Aug 30
Waning Crescent
Sep 5
New
Sep 12
First Quarter
Sep 19
Full
Sep 26
Last Quarter

Hourly Weather History & Observations

Time (CDT) Temp. Heat Index Dew Point Humidity Pressure Visibility Wind Dir Wind Speed Gust Speed Precip Events Conditions
12:53 AM 82.4 °F 87.2 °F 71.6 °F 70% 29.83 in 10.0 mi SSW 4.6 mph - N/A   Scattered Clouds
1:53 AM 82.4 °F 87.2 °F 71.6 °F 70% 29.82 in 10.0 mi SSW 4.6 mph - N/A   Mostly Cloudy
2:53 AM 80.6 °F 84.6 °F 71.6 °F 74% 29.81 in 10.0 mi SW 4.6 mph - N/A   Partly Cloudy
3:53 AM 80.6 °F 84.6 °F 71.6 °F 74% 29.81 in 10.0 mi West 9.2 mph - N/A   Clear
4:53 AM 78.1 °F - 71.1 °F 79% 29.81 in 10.0 mi WSW 3.5 mph - N/A   Clear
5:53 AM 75.9 °F - 71.1 °F 85% 29.83 in 10.0 mi NW 5.8 mph - N/A   Clear
6:53 AM 75.0 °F - 70.0 °F 84% 29.84 in 10.0 mi North 11.5 mph - N/A   Partly Cloudy
7:37 AM 73.4 °F - 68.0 °F 83% 29.88 in 10.0 mi NNE 13.8 mph 27.6 mph N/A   Mostly Cloudy
7:53 AM 73.9 °F - 68.0 °F 82% 29.87 in 10.0 mi North 16.1 mph - N/A   Overcast
8:53 AM 73.9 °F - 66.0 °F 76% 29.89 in 10.0 mi North 11.5 mph - N/A   Overcast
9:00 AM 73.4 °F - 66.2 °F 78% 29.91 in 10.0 mi North 12.7 mph - N/A   Overcast
9:36 AM 75.2 °F - 64.4 °F 69% 29.92 in 10.0 mi North 15.0 mph 25.3 mph N/A   Overcast
9:53 AM 73.9 °F - 64.0 °F 71% 29.91 in 10.0 mi North 16.1 mph - N/A   Overcast
10:53 AM 75.0 °F - 63.0 °F 66% 29.92 in 10.0 mi North 16.1 mph 23.0 mph N/A   Overcast
11:53 AM 75.9 °F - 63.0 °F 64% 29.93 in 10.0 mi North 15.0 mph 26.5 mph N/A   Overcast
12:53 PM 79.0 °F - 63.0 °F 58% 29.91 in 10.0 mi NNE 15.0 mph - N/A   Mostly Cloudy
1:53 PM 80.1 °F 81.7 °F 64.0 °F 58% 29.91 in 10.0 mi NNE 12.7 mph 20.7 mph N/A   Mostly Cloudy
2:53 PM 82.0 °F 83.4 °F 64.0 °F 54% 29.90 in 10.0 mi North 12.7 mph 17.3 mph N/A   Partly Cloudy
3:53 PM 84.9 °F 86.1 °F 64.0 °F 49% 29.89 in 10.0 mi North 11.5 mph - N/A   Scattered Clouds
4:53 PM 84.9 °F 86.1 °F 64.0 °F 49% 29.87 in 10.0 mi NNE 10.4 mph - N/A   Partly Cloudy
5:53 PM 84.9 °F 86.1 °F 64.0 °F 49% 29.86 in 10.0 mi NE 8.1 mph 29.9 mph N/A   Partly Cloudy
6:53 PM 82.9 °F 84.4 °F 64.0 °F 53% 29.87 in 10.0 mi NNE 9.2 mph - N/A   Partly Cloudy
7:53 PM 81.0 °F 82.2 °F 63.0 °F 54% 29.87 in 10.0 mi NNE 8.1 mph - N/A   Partly Cloudy
8:53 PM 78.1 °F - 64.0 °F 62% 29.88 in 10.0 mi North 5.8 mph - N/A   Partly Cloudy
9:53 PM 78.1 °F - 63.0 °F 60% 29.88 in 10.0 mi East 8.1 mph - N/A   Clear
10:53 PM 75.0 °F - 62.1 °F 64% 29.87 in 10.0 mi ENE 9.2 mph - N/A   Clear
11:53 PM 73.0 °F - 63.0 °F 71% 29.88 in 10.0 mi ENE 8.1 mph - N/A   Clear